This demonstration page uses our WeatherBlox Daily Observations layout. Learn more.

Left ArrowRight Arrow

34.74481, -87.66753

Hourly Observations for January 2, 2022

Temp ( °F °C ) Dew Point ( °F °C ) Humidity (%) Winds ( mph kmh ) Pressure ( in mb ) Visibility ( mi km ) Precip ( " mm )
12:03 am 00:03 Cloudy 60 15.6 58 14.4 93 93 WSW 5 7 29.73 1007 10 16 0.00 0.00
12:45 am 00:45 Cloudy 60 15.6 58 14.4 93 93 Calm 29.76 1008 10 16 0.00 0.00
12:53 am 00:53 Cloudy 60 15.6 58 14.4 93 93 SW 3 6 29.75 1007 10 16 0.00 0.00
1:28 am 01:28 Cloudy 60 15.6 58 14.4 93 93 WNW 6 9 29.76 1008 10 16 0.00 0.00
1:46 am 01:46 Cloudy 60 15.6 58 14.4 93 93 WNW 7 11 29.77 1008 7 11 0.00 0.00
1:53 am 01:53 Cloudy with Mist and Fog 60 15.6 58 14.4 93 93 WNW 9 15 29.76 1008 4 6 0.00 0.00
2:00 am 02:00 Cloudy with Mist and Fog 60 15.6 58 14.4 93 93 W 8 13 29.78 1008 3 5 0.00 0.00
2:53 am 02:53 Cloudy 60 15.6 58 14.4 93 93 Calm 29.75 1008 10 16 0.00 0.00
3:11 am 03:11 Cloudy 60 15.6 58 14.4 93 93 W 5 7 29.78 1008 10 16 0.00 0.00
3:33 am 03:33 Cloudy 60 15.6 58 14.4 93 93 WNW 6 9 29.79 1009 10 16 0.00 0.00
3:53 am 03:53 Cloudy 60 15.6 58 14.4 93 93 WNW 8 13 29.78 1008 10 16 0.00 0.00
4:34 am 04:34 Cloudy 60 15.6 57 13.9 90 90 NNW 6 9 29.81 1009 10 16 0.00 0.00
4:43 am 04:43 Cloudy 60 15.6 57 13.9 90 90 NW 3 6 29.81 1009 10 16 0.00 0.00
4:53 am 04:53 Mostly Cloudy 59 15 56 13.3 90 90 NNW 3 6 29.80 1009 10 16 0.00 0.00
5:02 am 05:02 Mostly Cloudy 59 15 56 13.3 90 90 Calm 29.81 1009 10 16 0.00 0.00
5:38 am 05:38 Cloudy 59 15 57 13.9 93 93 WNW 3 6 29.82 1010 10 16 0.00 0.00
5:53 am 05:53 Cloudy 59 15 56 13.3 90 90 NW 9 15 29.82 1010 10 16 0.00 0.00
6:13 am 06:13 Cloudy with Light Rain 56 13.3 54 12.2 93 93 NW 10 17 29.85 1011 4 6 0.00 0.00
6:21 am 06:21 Cloudy 55 12.8 53 11.7 93 93 NW 12 19 29.86 1011 10 16 0.00 0.00
6:53 am 06:53 Cloudy 54 12.2 51 10.6 90 90 NW 10 17 29.87 1012 10 16 0.00 0.00
7:45 am 07:45 Cloudy 52 11.1 49 9.4 89 89 NNW 7 11 29.91 1013 10 16 0.00 0.00
7:53 am 07:53 Cloudy 52 11.1 48 8.9 86 86 VRB 6 9 29.89 1012 10 16 0.00 0.00
8:41 am 08:41 Cloudy 51 10.6 47 8.3 86 86 NNW 9 15 29.93 1013 10 16 0.00 0.00
8:53 am 08:53 Cloudy 51 10.6 46 7.8 83 83 NNW 8 13 29.93 1013 10 16 0.00 0.00
9:53 am 09:53 Cloudy 51 10.6 46 7.8 83 83 NW 12 19 29.97 1015 10 16 0.00 0.00
10:06 am 10:06 Cloudy 49 9.4 45 7.2 86 86 NW 12 19 29.99 1016 10 16 0.00 0.00
10:23 am 10:23 Cloudy 49 9.4 44 6.7 83 83 NW 10 17 29.99 1016 10 16 0.00 0.00
10:53 am 10:53 Cloudy 48 8.9 44 6.7 86 86 WNW 15 24 30.00 1016 10 16 0.00 0.00
11:20 am 11:20 Cloudy 47 8.3 43 6.1 86 86 NW 8 13 30.02 1017 10 16 0.00 0.00
11:53 am 11:53 Cloudy 45 7.2 41 5 86 86 NW 13 20 30.02 1017 10 16 0.00 0.00
12:53 pm 12:53 Cloudy 45 7.2 41 5 86 86 N 8 13 29.96 1014 10 16 0.00 0.00
1:23 pm 13:23 Cloudy 45 7.2 40 4.4 83 83 NNW 12 19 29.99 1016 10 16 0.00 0.00
1:53 pm 13:53 Cloudy with Light Rain 45 7.2 40 4.4 83 83 NNW 9 15 29.96 1014 10 16 0.00 0.00
2:53 pm 14:53 Cloudy with Light Rain 44 6.7 40 4.4 85 85 N 12 19 29.96 1015 6 10 0.01 0.25
3:14 pm 15:14 Cloudy 44 6.7 40 4.4 85 85 NNW 8 13 29.98 1015 10 16 0.00 0.00
3:21 pm 15:21 Cloudy 44 6.7 40 4.4 85 85 NNW 9 15 29.99 1016 10 16 0.00 0.00
3:53 pm 15:53 Cloudy 43 6.1 39 3.9 86 86 NNW 12 19 29.98 1015 10 16 0.00 0.00
4:53 pm 16:53 Cloudy with Rain 41 5 39 3.9 93 93 NNW 9 15 29.98 1015 5 8 0.05 1.27
5:08 pm 17:08 Cloudy with Rain 41 5 38 3.3 89 89 N 9 15 30.00 1016 6 10 0.02 0.51
5:41 pm 17:41 Cloudy with Light Rain 40 4.4 37 2.8 89 89 N 8 13 30.01 1016 6 10 0.06 1.52
5:51 pm 17:51 Cloudy with Light Rain 39 4 37 3 93 93 NNW 10 17 30.02 1017 7 11 0.07 1.78
5:53 pm 17:53 Cloudy with Light Rain 40 4.4 37 2.8 89 89 NNW 9 15 29.99 1016 7 11 0.07 1.78
6:53 pm 18:53 Cloudy with Light Rain 37 2.8 34 1.1 89 89 NNW 13 20 30.02 1017 9 14 0.05 1.27
7:44 pm 19:44 Cloudy with Light Snow 35 1.7 32 0 89 89 NNW 10 17 30.09 1019 3 4 0.03 0.76
7:51 pm 19:51 Cloudy with Light Snow 36 2 32 0 87 87 NW 17 28 30.10 1019 2 3 0.03 0.76
7:53 pm 19:53 Cloudy with Light Snow 35 1.7 31 -0.6 85 85 NNW 14 22 30.07 1018 2 3 0.03 0.76
8:05 pm 20:05 Cloudy with Light Snow 34 1.1 31 -0.6 89 89 NNW 10 17 30.09 1019 2 2 0.01 0.25
8:19 pm 20:19 Cloudy with Snow 33 0.6 31 -0.6 92 92 NNW 14 22 30.08 1019 1 1 0.04 1.02
8:35 pm 20:35 Cloudy with Light Snow 33 0.6 31 -0.6 92 92 NNW 12 19 30.10 1019 2 3 0.09 2.29
8:43 pm 20:43 Cloudy with Light Snow 33 0.6 31 -0.6 92 92 NNW 13 20 30.11 1020 2 2 0.09 2.29
8:49 pm 20:49 Cloudy with Light Snow 34 1 30 -1 87 87 NNW 8 13 30.10 1019 2 3 0.09 2.29
8:53 pm 20:53 Cloudy with Light Snow 33 0.6 31 -0.6 92 92 NNW 9 15 30.08 1019 3 4 0.09 2.29
9:00 pm 21:00 Cloudy with Light Snow 33 0.6 31 -0.6 92 92 NW 10 17 30.11 1020 3 5 0.00 0.00
9:14 pm 21:14 Cloudy with Light Snow 33 0.6 31 -0.6 92 92 NW 12 19 30.13 1020 5 8 0.00 0.00
9:36 pm 21:36 Cloudy with Light Snow 33 0.6 30 -1.1 89 89 NNW 10 17 30.12 1020 3 5 0.00 0.00
9:49 pm 21:49 Cloudy with Light Snow 34 1 30 -1 87 87 NW 9 15 30.13 1020 3 4 0.00 0.00
9:53 pm 21:53 Cloudy with Light Snow 33 0.6 30 -1.1 89 89 NW 12 19 30.11 1020 3 4 0.00 0.00
9:57 pm 21:57 Cloudy with Light Snow 33 0.6 30 -1.1 89 89 NW 12 19 30.14 1021 3 4 0.00 0.00
10:04 pm 22:04 Cloudy with Light Snow 33 0.6 30 -1.1 89 89 NW 8 13 30.15 1021 3 5 0.00 0.00
10:12 pm 22:12 Cloudy with Light Snow 33 0.6 31 -0.6 92 92 NW 10 17 30.16 1021 4 6 0.00 0.00
10:17 pm 22:17 Cloudy with Mist and Fog 33 0.6 31 -0.6 92 92 NW 9 15 30.16 1021 5 8 0.00 0.00
10:21 pm 22:21 Cloudy with Mist and Fog 33 0.6 31 -0.6 92 92 NW 12 19 30.16 1021 6 10 0.00 0.00
10:28 pm 22:28 Cloudy 33 0.6 31 -0.6 92 92 NW 15 24 30.16 1021 8 13 0.00 0.00
10:45 pm 22:45 Cloudy with Light Snow 33 0.6 30 -1.1 89 89 NW 13 20 30.17 1022 2 3 0.00 0.00
10:53 pm 22:53 Cloudy with Light Snow 33 0.6 30 -1.1 89 89 NW 13 20 30.14 1021 2 2 0.00 0.00
11:10 pm 23:10 Cloudy with Light Snow 32 0 30 -1.1 92 92 NW 13 20 30.18 1022 3 4 0.00 0.00
11:22 pm 23:22 Cloudy with Light Snow 32 0 29 -1.7 88 88 NW 17 28 30.18 1022 3 5 0.00 0.00
11:27 pm 23:27 Cloudy with Light Snow 32 0 30 -1.1 92 92 NW 12 19 30.19 1022 3 4 0.00 0.00
11:35 pm 23:35 Cloudy with Light Snow 32 0 30 -1.1 92 92 NW 13 20 30.19 1022 2 3 0.00 0.00
11:42 pm 23:42 Cloudy with Light Snow 32 0 29 -1.7 88 88 NW 13 20 30.19 1022 3 4 0.00 0.00
11:46 pm 23:46 Cloudy with Light Snow 32 0 29 -1.7 88 88 NW 15 24 30.19 1022 3 5 0.00 0.00
11:53 pm 23:53 Cloudy with Light Snow 32 0 29 -1.7 88 88 NW 13 20 30.17 1022 4 6 0.00 0.00

Powered by AerisWeather